Regional Weather Roundup
Issued by NWS

Home | Current Version | Previous Version | Text Only | Print | Product List | Glossary Off
Versions: 1 2 3 4 5 6 7 8 9 10 11 12 13 14 15 16 17 18 19 20 21 22 23 24 25 26 27 28 29 30 31 32 33 34 35 36 37 38 39 40 41 42 43 44 45 46 47 48 49 50

000
ASUS43 KBIS 201202
RWRND

NORTH DAKOTA REGIONAL WEATHER ROUNDUP
NATIONAL WEATHER SERVICE BISMARCK ND
700 AM CDT THU JUL 20 2017

NOTE: "FAIR" INDICATES FEW OR NO CLOUDS BELOW 12,000 FEET WITH NO
SIGNIFICANT WEATHER AND/OR OBSTRUCTIONS TO VISIBILITY.


NDZ001>003-009>011-017-201300-
NORTHWEST NORTH DAKOTA

CITY           SKY/WX    TMP DP  RH WIND       PRES   REMARKS
WILLISTON        N/A    N/A N/A N/A MISG      29.96R
MINOT          CLEAR     59  56  89 N3        30.01R
MINOT AFB      CLEAR     61  58  90 E5        30.00R
$$

NDZ018>021-031>035-040>046-201300-
SOUTHWEST NORTH DAKOTA

CITY           SKY/WX    TMP DP  RH WIND       PRES   REMARKS
BISMARCK       CLOUDY    63  61  93 E3        30.02S
6HR MIN TEMP:  61; 6HR MAX TEMP:  71;

DICKINSON      CLEAR     67  61  81 SW10      29.99S
GARRISON         N/A     64  61  90 E7        30.01R
6HR MIN TEMP:  60; 6HR MAX TEMP:  68;

HETTINGER ARPT MOCLDY    65  60  84 VRB3      30.06R
$$

NDZ004>008-012>016-024-026-027-054-201300-
NORTHEAST NORTH DAKOTA

CITY           SKY/WX    TMP DP  RH WIND       PRES   REMARKS
GRAND FORKS    PTCLDY    60  58  92 CALM      29.98R
GRND FRKS AFB  CLEAR     57  56  96 CALM      30.00R
DEVILS LAKE    PTCLDY    61  59  93 N7        30.04R
$$

NDZ022-023-025-028>030-036>039-047>053-201300-
SOUTHEAST NORTH DAKOTA

CITY           SKY/WX    TMP DP  RH WIND       PRES   REMARKS
FARGO          PTCLDY    63  62  97 CALM      29.99R
6HR MIN TEMP:  60; 6HR MAX TEMP:  69;

JAMESTOWN      CLOUDY    63  61  93 CALM      30.00S
$$





USA.gov is the U.S. government's official web portal to all federal, state and local government web resources and services.